MPEC 2004-A56 : 2004 AS1

The following Minor Planet Electronic Circular may be linked-to from your own Web pages, but must not otherwise be redistributed electronically.


Read MPEC 2004-A55 Read MPEC 2004-A57


M.P.E.C. 2004-A56                                Issued 2004 Jan. 14, 20:20 UT

     The Minor Planet Electronic Circulars contain information on unusual
         minor planets and routine data on comets.  They are published
   on behalf of Commission 20 of the International Astronomical Union by the
          Minor Planet Center, Smithsonian Astrophysical Observatory,
                          Cambridge, MA 02138, U.S.A.

         Supported in part by the Steven and Michele Kirsch Foundation
             Prepared using the Tamkin Foundation Computer Network

                              MPC@CFA.HARVARD.EDU
          URL http://cfa-www.harvard.edu/iau/mpc.html  ISSN 1523-6714

                                   2004 AS1

Observations:
     K04A01S* C2004 01 13.33056 10 20 48.57 +72 03 36.4          19.2   EA056704
     K04A01S  C2004 01 13.34279 10 20 43.81 +72 03 51.9          19.1   EA056704
     K04A01S  C2004 01 13.36726 10 20 33.30 +72 04 17.7          19.3   EA056704
     K04A01S  C2004 01 13.37952 10 20 27.47 +72 04 27.8          19.2   EA056704
     K04A01S  C2004 01 14.39423 10 13 23.73 +72 20 11.6          18.6   EA056704
     K04A01S  C2004 01 14.40686 10 13 17.75 +72 20 23.9          19.1   EA056704
     K04A01S  C2004 01 14.41939 10 13 11.39 +72 20 33.8          18.6   EA056704
     K04A01S  C2004 01 14.44472 10 12 58.77 +72 20 53.9          18.7   EA056704
     K04A01S  C2004 01 14.76186 10 10 44.15 +72 24 47.0                 EA056557
     K04A01S  C2004 01 14.77646 10 10 37.64 +72 25 01.2          18.5 V EA056557
     K04A01S  C2004 01 14.81998 10 10 17.91 +72 25 47.3                 EA056557

Observer details:
557 Ondrejov.  Observer P. Kusnirak.  0.65-m f/3.6 reflector + CCD.
704 Lincoln Laboratory ETS, New Mexico.  Observers M. Blythe, F. Shelly,
    M. Bezpalko, R. Huber, L. Manguso, D. Torres, R. Kracke, M. McCleary,
    H. Stange, A. Milner.  Measurers J. Stuart, R. Sayer, J. Evans, J. Kommers.
    1.0-m f/2.15 reflector + CCD.

Orbital elements:
2004 AS1                                                             PHA 0.011D
Epoch 2003 Dec. 27.0 TT = JDT 2453000.5                 MPC
M 252.14289              (2000.0)            P               Q
n   0.89143131     Peri.  261.58231     -0.69591966     +0.69517166
a   1.0692456      Node   322.14416     -0.48715374     -0.64125934
e   0.1733742      Incl.   17.06519     -0.52761450     -0.32484275
P   1.11           H   20.1           G   0.15           U   9
Residuals in seconds of arc
040113 704 (2.9-  2.1-)   040114 704  0.4-  0.3+    040114 557  0.2-  0.3+
040113 704  0.2-  0.4+    040114 704  0.7+  1.1+    040114 557  0.2-  0.7-
040113 704  0.9+  0.8+    040114 704  0.1-  0.1-    040114 557  0.0   0.1+
040113 704  1.0-  1.6-    040114 704  0.6-  1.7-

Ephemeris:
2004 AS1                 a,e,i = 1.07, 0.17, 17                  q = 0.8839
Date    TT    R. A. (2000) Decl.     Delta      r     Elong.  Phase     V
2004 01 06    10 52.18   +69 55.5    0.237    1.128   122.3    47.5    19.0
2004 01 16    10 00.6    +72 41.9    0.185    1.101   125.2    46.9    18.4
2004 01 26    07 52.9    +71 47.1    0.137    1.073   126.9    47.2    17.7
2004 02 05    05 44.39   +57 43.8    0.099    1.044   123.6    51.9    17.1
2004 02 15    04 42.80   +25 52.6    0.081    1.014   107.0    68.6    17.1
2004 02 25    04 14.09   -07 50.2    0.095    0.986    84.9    89.6    18.1
2004 03 06    03 55.14   -28 09.0    0.129    0.959    71.4   101.2    19.3
2004 03 16    03 36.09   -39 10.6    0.170    0.934    64.5   106.0    20.0
2004 03 26    03 13.69   -45 09.1    0.211    0.914    61.0   107.4    20.5
2004 04 05    02 47.98   -47 49.4    0.251    0.898    59.2   106.9    20.9
2004 04 15    02 22.05   -47 49.9    0.288    0.888    58.6   105.3    21.0
2004 04 25    02 00.04   -45 39.6    0.322    0.884    58.9   102.9    21.1
2004 05 05    01 44.24   -41 47.4    0.350    0.887    60.0   100.0    21.2
2004 05 15    01 35.20   -36 39.3    0.374    0.896    61.6    96.8    21.2
2004 05 25    01 32.01   -30 39.5    0.392    0.911    63.8    93.5    21.2
2004 06 04    01 33.27   -24 04.1    0.404    0.931    66.5    90.0    21.2
2004 06 14    01 37.81   -17 03.4    0.411    0.954    69.7    86.5    21.1
2004 06 24    01 44.50   -09 44.6    0.412    0.981    73.3    83.0    21.0
2004 07 04    01 52.41   -02 10.4    0.409    1.009    77.3    79.4    20.9
2004 07 14    02 00.82   +05 38.5    0.402    1.038    81.8    75.7    20.8
2004 07 24    02 08.84   +13 41.3    0.392    1.067    86.7    71.8    20.7
2004 08 03    02 15.50   +21 57.5    0.381    1.096    91.9    67.7    20.6
2004 08 13    02 19.54   +30 24.6    0.370    1.123    97.5    63.4    20.4
2004 08 23    02 18.84   +38 53.2    0.360    1.148   103.2    59.0    20.3
2004 09 02    02 10.40   +47 04.9    0.354    1.172   108.8    54.6    20.2
2004 09 12    01 49.80   +54 26.4    0.351    1.192   113.8    50.6    20.1
2004 09 22    01 12.42   +60 02.9    0.354    1.210   117.9    47.1    20.0
2004 10 02    00 20.41   +62 53.7    0.362    1.225   120.7    44.6    20.0
2004 10 12    23 28.18   +62 36.6    0.375    1.238   121.8    43.3    20.1
2004 10 22    22 51.77   +59 57.7    0.394    1.247   121.4    43.0    20.2
2004 11 01    22 34.63   +56 13.1    0.417    1.252   119.6    43.5    20.4
2004 11 11    22 32.51   +52 15.8    0.444    1.255   116.9    44.7    20.5
2004 11 21    22 40.94   +48 34.2    0.473    1.254   113.6    46.2    20.7
2004 12 01    22 56.57   +45 20.5    0.503    1.250   109.9    47.8    20.9
2004 12 11    23 17.29   +42 36.1    0.534    1.243   106.1    49.6    21.1
2004 12 21    23 41.86   +40 19.3    0.565    1.233   102.1    51.3    21.2
2004 12 31    00 09.33   +38 25.7    0.595    1.219    98.2    53.0    21.3
2005 01 10    00 39.07   +36 48.3    0.624    1.203    94.3    54.6    21.5
2005 01 20    01 10.68   +35 21.1    0.650    1.184    90.5    56.2    21.6
2005 01 30    01 43.69   +33 57.0    0.675    1.162    86.8    57.8    21.7
2005 02 09    02 17.74   +32 28.8    0.696    1.138    83.2    59.4    21.7
2005 02 19    02 52.49   +30 50.6    0.714    1.112    79.8    61.0    21.8
2005 03 01    03 27.49   +28 56.5    0.728    1.084    76.5    62.7    21.8
2005 03 11    04 02.37   +26 41.8    0.737    1.055    73.5    64.5    21.8
2005 03 21    04 36.79   +24 03.3    0.741    1.026    70.7    66.4    21.8
2005 03 31    05 10.36   +20 58.9    0.739    0.997    68.1    68.4    21.8
2005 04 10    05 42.84   +17 28.2    0.731    0.969    65.9    70.6    21.8
2005 04 20    06 14.09   +13 32.0    0.717    0.944    63.9    73.0    21.8
2005 04 30    06 44.00   +09 12.5    0.696    0.922    62.4    75.6    21.8
2005 05 10    07 12.65   +04 33.3    0.668    0.904    61.2    78.4    21.7
2005 05 20    07 40.31   -00 21.3    0.633    0.891    60.5    81.3    21.7

Timothy B. Spahr             (C) Copyright 2004 MPC           M.P.E.C. 2004-A56

Read MPEC 2004-A55 Read MPEC 2004-A57


Our Web policy. Index to the CBAT/MPC/ICQ pages.

MPC